Flag Weather past 2 weeks in Sankt Ingbert, Saarland, Germany

Now
53 °F

Overcast.


Feels Like: 53 °F
Forecast: 43 / 53 °F
Wind: 3 mph from East

Location: Saarbruecken / Ensheim

Current Time: Nov 22, 2014 at 3:39:00 PM

Latest Report: Nov 22, 2014 at 3:00 PM


Visibility: 19 mi

Pressure: 30.12 "Hg

Humidity: 85%

Dew point: 48 °F

Location of Sankt IngbertLocation

Historic Weather in Sankt Ingbert — Graph

°F

Sankt Ingbert temperature yesterday

Maximum temperature yesterday: 44 °F (at 4:00 PM)
Minimum temperature yesterday: 38 °F (at 8:00 AM)
Average temperature yesterday: 41 °F

Past Weeks' High & Low Weather Summary

 TemperatureHumidityPressure
High55 °F (Nov 22, 2:00 PM)100% (Nov 9, 9:00 AM)30.31 "Hg (Nov 9, 9:00 AM)
Low37 °F (Nov 9, 6:00 AM)73% (Nov 8, 4:00 PM)29.57 "Hg (Nov 16, 3:00 PM)
Average45 °F95%29.87 "Hg
* Reported Nov 7 2:00 PM — Nov 22 2:00 PM, Sankt Ingbert, Weather by CustomWeather, © 2014

Note: Actual official high and low records may vary slightly from our data, if they occured in-between our weather recording intervals... More about our weather records

Advertising

Sankt Ingbert weather history for previous 24 hours

 ConditionsComfort  
Time TempWeatherWind HumidityBarometerVisibility
2:00 PM
Nov 22
55 °FPartly sunny.2 mph80%30.11 "Hg16 mi
1:00 PM54 °FPartly sunny.2 mph79%30.12 "Hg12 mi
12:00 PM51 °FOvercast.3 mph84%30.14 "Hg11 mi
11:00 AM47 °FPartly sunny.3 mph90%30.16 "Hg6 mi
10:00 AM43 °FPartly sunny.3 mph95%30.16 "Hg4 mi
9:00 AM41 °FScattered clouds.3 mph99%30.16 "Hg4 mi
8:00 AM40 °FFog.3 mph99%30.15 "Hg4 mi
7:00 AM40 °FPassing clouds.3 mph99%30.15 "Hg5 mi
6:00 AM40 °FPassing clouds.3 mph99%30.14 "Hg5 mi
5:00 AM40 °FPassing clouds.2 mph98%30.14 "Hg6 mi
4:00 AM40 °FOvercast.3 mph98%30.14 "Hg6 mi
3:00 AM40 °FOvercast.3 mph98%30.14 "Hg6 mi
2:00 AM40 °FPassing clouds.2 mph97%30.14 "Hg7 mi
1:00 AM41 °FOvercast.3 mph96%30.14 "Hg7 mi
12:00 AM41 °FPassing clouds.2 mph96%30.15 "Hg6 mi
11:00 PM
Nov 21
42 °FOvercast.3 mph96%30.15 "Hg7 mi
10:00 PM42 °FOvercast.3 mph94%30.16 "Hg7 mi
9:00 PM42 °FOvercast.5 mph94%30.15 "Hg7 mi
8:00 PM42 °FOvercast.5 mph93%30.14 "Hg7 mi
7:00 PM43 °FOvercast.3 mph90%30.14 "Hg7 mi
6:00 PM44 °FOvercast.2 mph90%30.14 "Hg7 mi
5:00 PM44 °FOvercast.3 mph92%30.14 "Hg6 mi
4:00 PM44 °FOvercast.3 mph92%30.15 "Hg6 mi
3:00 PM43 °FOvercast.5 mph91%30.15 "Hg6 mi
Weather by CustomWeather, © 2014

See weather overviewHow to use our weather pages